星链-3744 (STARLINK-3744 )

导读

STARLINK-3744是美国SpaceX星链星座的一员,于2022年4月21日发射升空,属于星链低轨互联网星座组网卫星。星链计划旨在构建全球覆盖的低轨卫星互联网,可提供高速低时延宽带服务,还具备潜在军事应用价值。该卫星入轨后,助力星链完成全球网络覆盖,为偏远地区网络接入、特殊场景通信提供支持,推动卫星互联网产业化落地,不过也引发了轨道资源与天文观测争议。

Basic Information
目录编号:
52304
目录名称:
STARLINK-3744
国际标识:
2022-041AV
轨道中心:
EARTH
卫星名称:
星链-3744
卫星全名:
星链-3744 (STARLINK-3744 )
卫星状态:
在轨 (已飞行1518 天)
发射日期:
2022-04-21 UTC
国别 :
美国 (US)
星等 :
--
Orbit Information
数据来源 国际轨道数据 AOE轨道数据
星历时间 2026-06-17T01:44:09+0800
23小时前
查看轨道信息
2026-06-13T18:00:00+0800
4天前
查看轨道信息
半长轴 6917.903km 6917.895km
偏心率 0.0001178 0.0002018
轨道倾角 53.159° 53.159°
近地点辐角 93.237° 76.769°
升交点赤经 4.378° 19.314°
平近点角 266.876° 227.252°
近地点 538.951km 538.361km
远地点 540.581km 541.155km
周期 95.438分钟 95.438分钟
每日圈数 15.088327 15.088353
Detailed Information
固有亮度:
5
最大亮度:
2.5
卫星平台:
Starlink v1.5
覆盖范围:
全球
运营商:
太空探索技术公司
运营商所在国:
美国
制造商(研发单位):
太空探索技术公司
制造商所在国:
美国
使用方式:
暂无
Satellite Introduction
星链(Starlink)计划是由太空探索技术公司(SpaceX)提出的一个巨型低轨卫星互联网星座项目,计划在2019年至2024年间在太空搭建由约1.2万颗卫星组成的“星链”网络,其中1584颗将部署在地球上空550千米处的近地轨道,并从2020年开始工作。该卫星仍在工作。
2D Orbit Map
3D Orbit Map
Orbit Altitude Analysis Chart
Orbit Inclination Analysis Chart
Orbit Comprehensive Analysis Chart
View Comprehensive Chart